This is the latest recevied weather packets stored in our database for station/object DB0MAK-13. If no packets are shown the sender has not sent any weather packets the latest 10 day(s).
| Time | Temp. | Humidity | Pressure | Rain* | Wind** | Luminosity | Snow |
|---|---|---|---|---|---|---|---|
| 1777527244 | 1.67° C | 59% | 1029.3 hPa | 0 mm | - | - | - |
| 1777526644 | 1.11° C | 61% | 1029.3 hPa | 0 mm | - | - | - |
| 1777526586 | 1.11° C | 61% | 1029.2 hPa | 0 mm | - | - | - |
| 1777526044 | 1.11° C | 62% | 1029.3 hPa | 0 mm | - | - | - |
| 1777525748 | 1.11° C | 61% | 1029 hPa | 0 mm | - | - | - |
| 1777525444 | 0.56° C | 61% | 1029.2 hPa | 0 mm | - | - | - |
| 1777525328 | 0.56° C | 62% | 1029.2 hPa | 0 mm | - | - | - |
| 1777524908 | 0.56° C | 62% | 1029 hPa | 0 mm | - | - | - |
| 1777524844 | 0.56° C | 62% | 1029 hPa | 0 mm | - | - | - |
| 1777524486 | 0.56° C | 62% | 1029 hPa | 0 mm | - | - | - |
| 1777524244 | 0.56° C | 61% | 1028.9 hPa | 0 mm | - | - | - |
| 1777524066 | 0.56° C | 61% | 1029 hPa | 0 mm | - | - | - |
| 1777523644 | 0° C | 63% | 1028.8 hPa | 0 mm | - | - | - |
| 1777523228 | -0.56° C | 64% | 1028.7 hPa | 0 mm | - | - | - |
| 1777523044 | -0.56° C | 65% | 1028.7 hPa | 0 mm | - | - | - |
| 1777522444 | -1.11° C | 66% | 1028.5 hPa | 0 mm | - | - | - |
| 1777522388 | -1.11° C | 66% | 1028.5 hPa | 0 mm | - | - | - |
| 1777521966 | -1.11° C | 67% | 1028.5 hPa | 0 mm | - | - | - |
| 1777521844 | -1.11° C | 66% | 1028.5 hPa | 0 mm | - | - | - |
| 1777521546 | -1.11° C | 66% | 1028.4 hPa | 0 mm | - | - | - |
| 1777521244 | -0.56° C | 63% | 1028.3 hPa | 0 mm | - | - | - |
| 1777521128 | -0.56° C | 62% | 1028.5 hPa | 0 mm | - | - | - |
| 1777520644 | -0.56° C | 62% | 1028.4 hPa | 0 mm | - | - | - |
| 1777520288 | 0° C | 61% | 1028.5 hPa | 0 mm | - | - | - |
| 1777520044 | 0° C | 60% | 1028.4 hPa | 0 mm | - | - | - |
* Rain latest hour (hover to see other rain measurements)
** Current wind speed in m/s (hover to see current wind gust speed)